Location: *
(37.8923°S, 90.1710°E)
Time: 21:43:32
(UTC+00:00)

Daily predictions for brighter satellites

Satellite Brightness Start Highest point End
(mag) Time Altitude Azimuth Time Altitude Azimuth Time Altitude Azimuth
BREEZE-M DEB (TANK) 4.2 12:00:38 10° W 12:02:59 27° NNW 12:07:33 10° NNE
CZ-4B R/B 3.6 12:02:06 10° S 12:05:48 86° WSW 12:09:31 10° NNW
Cosmos 2237 Rocket 2.2 12:01:57 10° SSW 12:07:42 88° ESE 12:13:23 10° NNE
ATLAS 3B R/B 3.6 12:03:14 10° S 12:08:06 22° SE 12:09:11 21° SE
Meteor 2-6 Rocket 4.2 12:03:37 10° S 12:09:20 61° E 12:14:49 10° NNE
SMAP 3.0 12:07:06 10° SSE 12:11:50 69° ENE 12:16:29 10° N
Lacrosse 4 Rocket 2.7 12:09:18 10° NNE 12:12:26 23° ENE 12:12:26 23° ENE
JB-3 4.3 12:10:22 10° N 12:14:19 85° WNW 12:18:25 10° SSW
Lacrosse 5 4.0 12:16:03 10° WSW 12:19:27 17° SSW 12:22:53 10° SSE
BREEZE-M DEB (TANK) 4.0 12:16:55 10° WSW 12:19:56 38° NNW 12:27:05 10° NNE
Cosmos 2221 4.5 12:17:37 10° SSW 12:21:24 30° W 12:25:07 10° NNW
CZ-4C R/B 4.5 12:19:09 10° WSW 12:22:39 20° WNW 12:25:48 10° NNW
SJ-11-01 4.4 12:18:55 10° S 12:23:39 75° WSW 12:28:20 10° NNW
Cosmos 2151 4.3 12:20:15 10° NNW 12:24:13 40° WSW 12:28:13 10° S
Cosmos 2297 Rocket 3.6 12:20:14 10° NW 12:25:24 35° WSW 12:30:37 10° S
Cosmos 1515 3.4 12:21:42 10° S 12:25:25 71° E 12:29:06 10° NNE
ATLAS 2AS CENTAUR R/B 2.9 12:19:34 10° NW 12:25:59 65° SW 12:31:37 15° SSE
SL-16 R/B 2.6 12:21:41 10° S 12:27:04 40° ESE 12:28:45 32° E
ADEOS 4.0 12:26:56 35° ESE 12:28:02 39° E 12:32:54 10° NNE
Cosmos 1741 Rocket 4.2 12:24:25 10° S 12:29:32 46° ESE 12:32:07 26° NE
Cosmos 1709 Rocket 4.4 12:24:20 10° SSW 12:30:39 66° W 12:36:57 10° N
ARGOS 4.2 12:27:32 10° S 12:32:43 46° WSW 12:37:50 10° NW
Meteor 1-27 Rocket 4.4 12:28:22 10° S 12:40:03 - NNE 12:32:05 32° SE
Cosmos 2184 Rocket 4.2 12:28:05 10° S 12:34:04 44° ESE 12:40:03 10° NNE
Cosmos 1331 Rocket 3.8 12:30:28 10° NNW 12:35:38 77° ENE 12:38:13 30° SSE
Cosmos 1242 Rocket 2.9 12:37:04 10° N 12:39:43 52° N 12:39:43 52° N
Cosmos 405 Rocket 3.8 12:38:28 10° SSW 12:42:16 46° W 12:46:04 10° NNW
CBERS 1 LM4 rocket 4.3 12:40:01 22° SSE 12:43:17 89° WSW 12:48:19 10° NNW
Cosmos 2219 3.6 12:38:16 10° NW 12:43:54 61° WSW 12:48:09 18° SSE
Cosmos 1850 Rocket 3.9 12:42:47 10° SSW 12:48:09 73° ESE 12:53:24 10° NNE
Cosmos 2227 Rocket 3.6 12:47:52 10° NW 12:53:03 36° WSW 12:58:01 11° S
Cosmos 1500 3.7 12:52:30 10° NNW 12:55:51 57° WNW 12:55:51 57° WNW
FALCON 9 R/B 3.4 12:34:57 10° WNW 12:56:51 63° N 12:59:32 42° ENE
Meteor 1-10 Rocket 4.3 12:53:31 10° SSW 12:59:22 78° W 13:05:02 10° N
SEDSat Delta rocket 4.3 13:00:47 10° WNW 13:04:33 30° NNW 13:04:33 30° NNW
USA 281 3.7 13:10:49 41° SSE 13:10:49 41° SSE 13:15:29 10° SSW
NOSS 2-3 (C) 4.2 13:06:57 10° SSW 13:14:18 85° ESE 13:14:33 82° ENE
Cosmos 2263 Rocket 2.1 13:09:52 10° NNW 13:15:32 81° WSW 13:15:43 80° SW
USA 81 4.1 13:10:14 10° N 13:15:21 79° WNW 13:15:21 79° WNW
NOSS 2-3 (D) 4.3 13:10:41 10° SSW 13:18:02 86° SE 13:18:02 86° SE
SeaSat 1 3.5 13:20:37 37° NNW 13:20:37 37° NNW 13:23:35 10° NNW
Tiangong 1.1 13:16:21 10° WSW 13:16:50 13° WSW 13:16:50 13° WSW
NOAA 6 4.4 13:19:37 56° SW 13:20:15 61° WSW 13:25:18 10° NNW
Nadezhda 1 Rocket 4.4 13:37:48 10° NNW 13:43:04 57° WNW 13:43:04 57° WNW
ATLAS 5 CENTAUR R/B 2.9 13:40:51 10° NW 13:48:17 72° WSW 13:48:17 72° WSW
Lacrosse 4 Rocket 4.0 13:47:08 10° WNW 13:48:37 19° WNW 13:48:37 19° WNW
ATLAS 3B R/B 3.7 13:53:02 10° SW 13:56:29 34° SW 13:56:29 34° SW
SL-16 R/B 4.0 14:06:13 10° SW 14:10:47 27° W 14:10:47 27° W
Cosmos 2263 Rocket 3.5 22:09:52 33° SE 22:10:29 34° ESE 22:15:32 10° NE
Lacrosse 4 Rocket 3.8 22:19:02 19° NE 22:19:02 19° NE 22:20:21 10° NE
ATLAS CENTAUR R/B 3.6 22:21:01 24° NE 22:21:01 24° NE 22:22:51 10° NE
Cosmos 1980 Rocket 4.0 22:22:22 20° SSE 22:22:22 20° SSE 22:24:05 10° SSE
Cosmos 1452 Rocket 4.3 22:21:29 48° ENE 22:21:29 48° ENE 22:25:30 10° NNE
CZ-2C R/B 4.2 22:25:53 10° NE 22:25:53 10° NE 22:25:55 10° NE
Cosmos 2082 3.9 22:28:52 67° ESE 22:28:52 67° ESE 22:34:21 10° NNE
Cosmos 967 Rocket 4.5 22:40:38 64° SSW 22:40:38 64° SSW 22:46:29 10° SSE
ATLAS 5 CENTAUR R/B 3.3 22:44:16 24° N 22:44:16 24° N 22:45:59 10° NNE
H-2A R/B 3.0 22:44:25 10° N 22:47:31 35° NNW 22:47:31 35° NNW
Cosmos 1818 4.0 22:51:28 47° S 22:51:28 47° S 22:55:33 10° SSE
SeaSat 1 3.7 22:45:41 10° NE 22:50:14 38° ESE 22:53:03 21° S
Cosmos 1076 Rocket 3.8 22:54:00 54° SSE 22:54:46 66° E 22:59:07 10° NNE
OAO 3 Rocket 4.2 22:54:08 34° N 22:54:58 36° NNE 22:59:23 10° E
Cosmos 1655 Rocket 4.0 22:50:22 10° N 22:56:36 85° E 23:02:56 10° S
USA 305 3.1 23:04:36 55° NNE 23:04:36 55° NNE 23:07:42 10° NE
Cosmos 1331 Rocket 3.8 23:03:39 57° SW 23:04:41 75° WNW 23:09:54 10° N
SL-16 R/B 2.4 23:04:32 10° NNW 23:10:10 72° ENE 23:15:53 10° SSE
Atlas Centaur 2 2.7 23:10:58 29° NNW 23:11:59 32° N 23:16:30 10° ENE
SMAP 3.7 23:08:13 10° NNE 23:12:47 56° ESE 23:17:25 10° S
Cosmos 2322 Rocket 3.1 23:08:08 10° N 23:13:30 49° ENE 23:18:57 10° SSE
SL-4 R/B 2.9 23:12:08 22° NNW 23:14:40 52° NE 23:19:07 10° ESE
Cosmos 2360 Rocket 3.7 23:15:24 10° N 23:20:35 39° ENE 23:25:50 10° SE
Cosmos-2242 3.3 23:16:35 10° N 23:20:54 70° E 23:25:18 10° SSE
S3M 4.1 23:17:10 13° SSW 23:22:42 54° W 23:28:47 10° NNW
USA 308 4.2 23:24:58 18° NNW 23:24:58 18° NNW 23:26:13 10° N
Cosmos 1812 Rocket 3.8 23:19:38 10° N 23:23:58 72° E 23:28:22 10° SSE
Meteor 1-29 4.2 23:21:20 10° N 23:22:50 26° N 23:22:50 26° N
SJ-11-01 4.2 23:20:59 10° NNE 23:25:42 88° ESE 23:30:27 10° SSW
Genesis I 3.0 23:29:09 40° SSW 23:30:25 86° ESE 23:34:14 10° NNE
Cosmos 1269 Rocket 4.2 23:25:35 10° N 23:30:52 76° ENE 23:36:15 10° SSE
Cosmos 1844 Rocket 4.2 23:27:13 10° S 23:32:15 33° ESE 23:37:15 10° ENE
Cosmos 2266 Rocket 4.3 23:26:42 10° NW 23:32:21 39° WSW 23:38:02 10° S
Cosmos 2333 Rocket 4.0 23:28:19 10° NNE 23:33:20 34° ENE 23:38:25 10° SE
USA 234 4.4 23:28:52 10° SSE 23:33:50 23° SSW 23:35:45 21° SW
SL-8 R/B 4.3 23:33:14 32° W 23:34:32 39° NW 23:38:58 10° NNE
Cosmos 1862 3.9 23:35:17 35° WNW 23:35:17 35° WNW 23:38:27 10° NNW
SL-08 ROCKET BODY 4.3 23:29:03 10° NNW 23:34:52 63° W 23:40:51 10° S
Cosmos 1666 4.2 23:36:58 10° S 23:40:26 36° E 23:43:50 10° NNE
DMSP B5D2-2 4.0 23:36:13 10° S 23:41:31 83° WSW 23:46:45 10° NNW
USA 307 3.9 23:43:12 23° WNW 23:43:29 23° NW 23:46:33 10° N
ADEOS 4.4 23:39:21 10° NNE 23:44:25 52° ESE 23:49:33 10° S
Cosmos 2219 Rocket 4.5 23:40:02 10° NNE 23:44:39 27° ENE 23:49:19 10° SE
ISS -1.5 23:46:23 13° S 23:48:05 18° SSE 23:50:29 10° ESE
Meteor 2-12 Rocket 4.4 23:43:45 10° NNW 23:49:45 62° W 23:55:50 10° S
CZ-2D R/B 4.2 23:50:28 10° NNW 23:53:46 27° W 23:54:53 24° WSW
ARGOS 3.8 23:49:05 10° NNW 23:54:00 34° W 23:58:58 10° SSW
Lacrosse 4 Rocket 3.6 23:55:13 11° WNW 23:55:13 11° WNW 23:55:41 10° NW
Cosmos 2263 Rocket 3.0 23:51:36 21° WSW 23:54:15 30° WNW 23:59:03 10° NNW
Gbstr 26 Del rocket 4.3 23:53:13 21° W 23:55:12 29° NW 23:59:41 10° NNE
ATLAS CENTAUR R/B 3.7 23:56:40 11° WNW 23:56:40 11° WNW 23:57:27 10° NW
